Simultaneous Nadir Overpasses (SNOs) Predictions

Prediction of SNOs between NOAA-20 and METOP-B Satellite Orbit:

Table of predicted SNOs for the next 14.0 days since TLE Epoch: 5/25/2024
Index Date (NOAA-20) Time (NOAA-20) Lat,Lon (NOAA-20) SZA (NOAA-20 ) Date (METOP-B) Time (METOP-B) Lat,Lon (METOP-B) SZA (METOP-B ) Distance(km) Time Diff (sec)
1 05/31/2024 04:40:02 -74.07, -81.03 127.70 05/31/2024 04:41:08 -73.98, -77.95 127.95 94.79 66
2 05/31/2024 05:30:43 73.84, 86.84 52.04 05/31/2024 05:31:51 73.80, 88.96 51.89 65.91 68
3 05/31/2024 06:21:25 -73.73,-105.60 128.08 05/31/2024 06:22:35 -73.70,-103.95 128.21 51.71 70
4 05/31/2024 07:12:07 73.55, 62.14 51.71 05/31/2024 07:13:19 73.47, 62.86 51.58 24.53 72
5 05/31/2024 08:02:49 -73.45,-130.32 128.41 05/31/2024 08:04:02 -73.42,-129.93 128.47 12.83 73
6 05/31/2024 08:53:33 73.36, 37.18 51.50 05/31/2024 08:54:43 73.34, 37.23 51.46 3.07 70
7 05/31/2024 09:44:17 -73.36,-155.50 128.51 05/31/2024 09:45:25 -73.34,-155.45 128.55 3.26 68
8 05/31/2024 10:35:02 73.33, 11.89 51.45 05/31/2024 10:36:05 73.31, 11.82 51.42 3.30 63
9 05/31/2024 11:25:46 -73.33, 179.21 128.56 05/31/2024 11:26:47 -73.31, 179.14 128.59 3.17 61
10 05/31/2024 12:16:32 73.34, -13.51 51.46 05/31/2024 12:17:26 73.33, -13.48 51.43 2.05 54
11 05/31/2024 13:07:16 -73.34, 153.80 128.55 05/31/2024 13:08:08 -73.33, 153.84 128.58 2.24 52
12 05/31/2024 13:58:01 73.31, -38.81 51.41 05/31/2024 13:58:48 73.29, -38.89 51.39 3.02 47
13 05/31/2024 14:48:45 -73.31, 128.51 128.60 05/31/2024 14:49:30 -73.29, 128.43 128.62 2.79 45
14 05/31/2024 15:39:31 73.32, -64.21 51.41 05/31/2024 15:40:09 73.31, -64.19 51.40 1.05 38
15 05/31/2024 16:30:15 -73.32, 103.10 128.60 05/31/2024 16:30:51 -73.31, 103.13 128.61 1.28 36
16 05/31/2024 17:21:00 73.28, -89.51 51.36 05/31/2024 17:21:31 73.28, -89.60 51.36 3.07 31
17 05/31/2024 18:11:44 -73.28, 77.81 128.65 05/31/2024 18:12:13 -73.28, 77.72 128.65 2.76 29
18 05/31/2024 19:02:30 73.30,-114.91 51.37 05/31/2024 19:02:52 73.30,-114.90 51.37 0.37 22
19 05/31/2024 19:53:14 -73.30, 52.41 128.64 05/31/2024 19:53:34 -73.30, 52.43 128.64 0.66 20
20 05/31/2024 20:43:59 73.26,-140.20 51.32 05/31/2024 20:44:14 73.27,-140.31 51.33 3.44 15
21 05/31/2024 21:34:43 -73.26, 27.11 128.69 05/31/2024 21:34:56 -73.27, 27.02 128.68 3.10 13
22 05/31/2024 22:25:29 73.28,-165.61 51.33 05/31/2024 22:25:35 73.29,-165.61 51.33 1.11 6
23 05/31/2024 23:16:13 -73.28, 1.71 128.68 05/31/2024 23:16:17 -73.29, 1.72 128.67 1.16 4
24 06/01/2024 00:06:59 73.29, 168.99 51.33 06/01/2024 00:06:56 73.30, 169.09 51.34 3.75 3
25 06/01/2024 00:57:42 -73.24, -23.59 128.73 06/01/2024 00:57:39 -73.25, -23.69 128.71 3.70 3
26 06/01/2024 01:48:28 73.25, 143.69 51.28 06/01/2024 01:48:18 73.27, 143.68 51.30 2.08 10
27 06/01/2024 02:39:11 -73.25, -48.99 128.73 06/01/2024 02:38:59 -73.27, -48.99 128.70 2.09 12
28 06/01/2024 03:29:57 73.27, 118.29 51.29 06/01/2024 03:29:39 73.24, 118.27 51.27 3.11 18
29 06/01/2024 04:20:41 -73.27, -74.40 128.72 06/01/2024 04:20:21 -73.24, -74.40 128.74 3.01 20
30 06/01/2024 05:11:26 73.23, 92.99 51.24 06/01/2024 05:11:00 73.26, 92.97 51.27 3.07 26
31 06/01/2024 06:02:10 -73.23, -99.69 128.77 06/01/2024 06:01:42 -73.26, -99.70 128.73 3.06 28
32 06/01/2024 06:52:56 73.25, 67.59 51.25 06/01/2024 06:52:22 73.23, 67.56 51.24 2.28 34
33 06/01/2024 07:43:40 -73.25,-125.10 128.76 06/01/2024 07:43:04 -73.23,-125.11 128.77 2.08 36
34 06/01/2024 08:34:26 73.26, 42.18 51.25 06/01/2024 08:33:43 73.24, 42.27 51.24 3.08 43
35 06/01/2024 09:25:10 -73.26,-150.50 128.76 06/01/2024 09:24:25 -73.25,-150.41 128.76 3.37 45
36 06/01/2024 10:15:55 73.22, 16.89 51.20 06/01/2024 10:15:05 73.21, 16.86 51.21 1.64 50
37 06/01/2024 11:06:39 -73.22,-175.79 128.80 06/01/2024 11:05:47 -73.21,-175.82 128.80 1.29 52
38 06/01/2024 11:57:25 73.24, -8.51 51.21 06/01/2024 11:56:26 73.23, -8.44 51.21 2.39 59
39 06/01/2024 12:48:09 -73.24, 158.80 128.80 06/01/2024 12:47:08 -73.23, 158.88 128.79 2.76 61
40 06/01/2024 13:38:54 73.20, -33.81 51.16 06/01/2024 13:37:48 73.20, -33.85 51.18 1.45 66
41 06/01/2024 14:29:38 -73.20, 133.51 128.85 06/01/2024 14:28:30 -73.20, 133.48 128.83 0.98 68
42 06/01/2024 15:20:24 73.21, -59.21 51.17 06/01/2024 15:19:09 73.22, -59.15 51.18 1.97 75
43 06/01/2024 16:11:07 -73.17, 108.21 128.89 06/01/2024 16:09:52 -73.17, 108.07 128.87 4.65 75
44 06/01/2024 17:01:48 72.93, -83.97 50.84 06/01/2024 17:00:36 72.93, -85.10 50.92 37.10 72
45 06/01/2024 17:52:31 -72.88, 83.45 129.22 06/01/2024 17:51:20 -72.83, 82.02 129.17 47.30 71
46 06/01/2024 18:43:11 72.59,-108.63 50.46 06/01/2024 18:42:04 72.59,-111.13 50.62 83.27 67
47 06/01/2024 19:33:54 -72.54, 58.78 129.60 06/01/2024 19:32:47 -72.55, 56.10 129.42 89.50 67



Historial Predications of SNOs between NOAA-20 and METOP-B
